Weather History for Jackson, WY

Change the Weather History Date:

Thursday, March 7, 2013

  Actual Average Record
Temperature  
Mean Temperature 24 °F -  
Max Temperature 33 °F 38 °F 48 °F (1981)
Min Temperature 15 °F 11 °F -16 °F (1964)
Degree Days  
Heating Degree Days 41    
Moisture  
Dew Point 20 °F    
Average Humidity 85    
Maximum Humidity 100    
Minimum Humidity 48    
Precipitation  
Precipitation 0.00 in - - ()
Sea Level Pressure  
Sea Level Pressure 29.96 in    
Wind  
Wind Speed 4 mph (SSW)    
Max Wind Speed 10 mph    
Max Gust Speed -    
Visibility 10 miles    
Events Snow    
Averages and records for this station are not official NWS values.
T = Trace of Precipitation, MM = Missing Value Source: NWS Daily Summary

Daily Weather History Graph

Daily Weather History Graph

Search for Another Location

Airport:

Trip Planner

Search our weather history database for the weather conditions in past years. The results will help you decide how hot, cold, wet, or windy it might be!

Date:

Astronomy

Mar. 07, 2013 Rise Set
Actual Time 6:48 AM MST 6:19 PM MST
Civil Twilight 6:20 AM MST 6:48 PM MST
Nautical Twilight 5:46 AM MST 7:21 PM MST
Astronomical Twilight 5:13 AM MST 7:55 PM MST
Moon 3:57 AM MST (3/7) 2:05 PM MST (3/7)
Length of Visible Light 12h 28m
Length of Day
11h 31m
Waning Crescent, 19% of the Moon is Illuminated
Mar 7
Waning Crescent
Mar 11
New
Mar 19
First Quarter
Mar 27
Full
Apr 2
Last Quarter

Hourly Weather History & Observations

Time (MST) Temp. Windchill Dew Point Humidity Pressure Visibility Wind Dir Wind Speed Gust Speed Precip Events Conditions
12:15 AM 26.6 °F 21.2 °F 24.8 °F 93% 29.92 in 10.0 mi SW 4.6 mph - N/A   Overcast
12:55 AM 23.0 °F - 21.2 °F 93% 29.92 in 10.0 mi Calm Calm - N/A   Mostly Cloudy
1:15 AM 23.0 °F 15.8 °F 21.2 °F 93% 29.92 in 10.0 mi ESE 5.8 mph - N/A   Partly Cloudy
1:35 AM 24.8 °F 15.3 °F 21.2 °F 86% 29.93 in 10.0 mi South 9.2 mph - N/A   Clear
1:55 AM 24.8 °F 16.1 °F 19.4 °F 80% 29.94 in 10.0 mi SSE 8.1 mph - N/A   Clear
2:15 AM 26.6 °F 16.8 °F 21.2 °F 80% 29.93 in 10.0 mi South 10.4 mph - N/A   Clear
2:35 AM 24.8 °F 16.1 °F 21.2 °F 86% 29.94 in 10.0 mi South 8.1 mph - N/A   Clear
2:55 AM 24.8 °F 14.6 °F 19.4 °F 80% 29.93 in 10.0 mi South 10.4 mph - N/A   Clear
3:15 AM 23.0 °F 18.4 °F 19.4 °F 86% 29.93 in 10.0 mi WSW 3.5 mph - N/A   Clear
3:35 AM 24.8 °F - 19.4 °F 80% 29.93 in 10.0 mi Calm Calm - N/A   Clear
3:55 AM 23.0 °F - 19.4 °F 86% 29.94 in 10.0 mi Calm Calm - N/A   Clear
4:15 AM 24.8 °F 20.5 °F 19.4 °F 80% 29.95 in 10.0 mi South 3.5 mph - N/A   Clear
4:35 AM 24.8 °F 20.5 °F 19.4 °F 80% 29.95 in 10.0 mi WSW 3.5 mph - N/A   Clear
4:55 AM 21.2 °F 14.9 °F 19.4 °F 93% 29.96 in 10.0 mi WSW 4.6 mph - N/A   Clear
5:15 AM 23.0 °F 17.0 °F 19.4 °F 86% 29.97 in 10.0 mi WSW 4.6 mph - N/A   Partly Cloudy
5:35 AM 19.4 °F 10.4 °F 17.6 °F 93% 29.97 in 10.0 mi WSW 6.9 mph - N/A   Scattered Clouds
5:55 AM 19.4 °F 8.6 °F 17.6 °F 93% 29.97 in 10.0 mi WSW 9.2 mph - N/A   Scattered Clouds
6:15 AM 19.4 °F - 17.6 °F 93% 29.98 in 10.0 mi Calm Calm - N/A   Partly Cloudy
6:35 AM 21.2 °F 16.4 °F 17.6 °F 86% 29.98 in 10.0 mi ESE 3.5 mph - N/A   Scattered Clouds
6:54 AM 17.6 °F - 15.8 °F 93% 29.99 in 10.0 mi Calm Calm - N/A   Scattered Clouds
7:52 AM 15.8 °F 10.2 °F 12.2 °F 86% 30.01 in 10.0 mi North 3.5 mph - N/A   Mostly Cloudy
8:51 AM 19.4 °F 9.5 °F 15.8 °F 86% 30.02 in 10.0 mi North 8.1 mph - N/A   Clear
9:54 AM 21.2 °F 14.9 °F 17.6 °F 86% 30.02 in 10.0 mi North 4.6 mph - N/A   Clear
11:17 AM 24.8 °F 17.9 °F 19.4 °F 80% 30.02 in 10.0 mi North 5.8 mph - N/A   Clear
12:01 PM 26.6 °F 21.2 °F 19.4 °F 74% 30.02 in 10.0 mi North 4.6 mph - N/A   Clear
12:52 PM 28.4 °F - 19.4 °F 69% 30.00 in 10.0 mi Calm Calm - N/A   Scattered Clouds
1:53 PM 30.2 °F 26.7 °F 19.4 °F 64% 29.97 in 10.0 mi East 3.5 mph - N/A   Scattered Clouds
2:55 PM 33.8 °F - 15.8 °F 48% 29.95 in 10.0 mi Calm Calm - N/A   Scattered Clouds
3:57 PM 32.0 °F - 17.6 °F 55% 29.95 in 10.0 mi Calm Calm - N/A   Mostly Cloudy
4:54 PM 33.8 °F - 19.4 °F 56% 29.96 in 8.0 mi Calm Calm - N/A   Overcast
5:51 PM 33.8 °F - 19.4 °F 56% 29.97 in 7.0 mi Calm Calm - N/A   Overcast
6:51 PM 30.2 °F - 26.6 °F 86% 29.98 in 4.0 mi Calm Calm - N/A Snow Light Snow
7:51 PM 26.6 °F - 24.8 °F 93% 29.97 in 8.0 mi Calm Calm - N/A   Mostly Cloudy
8:51 PM 26.6 °F - 26.6 °F 100% 29.97 in 10.0 mi Calm Calm - N/A   Mostly Cloudy
8:55 PM 26.6 °F - 26.6 °F 100% 29.97 in - Calm Calm - N/A   Mostly Cloudy
9:15 PM 24.8 °F - 24.8 °F 100% 29.97 in 10.0 mi Calm Calm - N/A   Scattered Clouds
9:35 PM 26.6 °F - 26.6 °F 100% 29.97 in 10.0 mi Calm Calm - N/A   Mostly Cloudy
9:55 PM 24.8 °F - 23.0 °F 93% 29.97 in - Calm Calm - N/A   Unknown
10:35 PM 24.8 °F - 23.0 °F 93% 29.96 in 10.0 mi Calm Calm - N/A   Mostly Cloudy
10:55 PM 24.8 °F - 23.0 °F 93% 29.96 in 10.0 mi Calm Calm - N/A   Mostly Cloudy
11:15 PM 24.8 °F 17.9 °F 23.0 °F 93% 29.96 in 10.0 mi ENE 5.8 mph - N/A   Mostly Cloudy
11:35 PM 19.4 °F 12.8 °F 19.4 °F 100% 29.95 in 10.0 mi NNE 4.6 mph - N/A   Mostly Cloudy
11:55 PM 19.4 °F 11.5 °F 17.6 °F 93% 29.95 in 10.0 mi North 5.8 mph - N/A   Overcast